Location: Unspecified
(45.3999°N, 88.1269°W)
Time: 02:46:05
(UTC-05:00)

Cosmos 2058 - Visible Passes

Search period start: 17 October 2017 00:00
Search period end: 27 October 2017 00:00
Orbit: 564 x 584 km, 82.5° (Epoch: 16 October)

Date Brightness Start Highest point End Pass type
(mag) Time Alt. Az. Time Alt. Az. Time Alt. Az.
17 Oct 3.4 18:37:37 10° N 18:41:34 39° ENE 18:45:29 10° SE visible
17 Oct 5.8 20:15:18 10° NW 20:18:12 18° W 20:21:04 10° SW visible
18 Oct 3.1 18:40:48 10° N 18:44:55 51° ENE 18:48:58 10° SSE visible
18 Oct 6.2 20:19:09 10° NW 20:21:22 14° W 20:23:34 10° WSW visible
19 Oct 2.8 18:44:02 10° N 18:48:14 69° E 18:52:22 10° SSE visible
19 Oct 6.5 20:23:33 10° WNW 20:24:30 11° W 20:25:29 10° W visible
20 Oct 2.9 18:47:18 10° N 18:51:31 89° W 18:55:40 10° S visible
21 Oct 3.3 18:50:38 10° NNW 18:54:48 67° W 18:58:54 10° S visible
22 Oct 4.0 18:54:00 10° NNW 18:58:03 50° W 19:02:03 10° S visible
23 Oct 4.6 18:57:25 10° NNW 19:01:17 37° W 19:05:06 10° SSW visible
24 Oct 5.2 19:00:54 10° NNW 19:04:30 29° W 19:08:04 10° SSW visible
25 Oct 6.5 05:52:38 10° ESE 05:54:11 12° E 05:55:43 10° ENE visible
25 Oct 5.7 19:04:27 10° NW 19:07:41 22° W 19:10:54 10° SW visible
26 Oct 6.2 05:54:51 10° ESE 05:57:19 15° E 05:59:49 10° NE visible
26 Oct 6.1 19:08:09 10° NW 19:10:52 17° W 19:13:35 10° SW visible
